Notices

What's New in latest Release from April 7th, 2021:

- Updated Glossary, including Speed of Maximum Gust, and Total Hourly Precipitation

- Updated national and regional climate services offices contacts and prices information

- Addition of station inventory lists for 1981-2010, 1971-2000, and 1961-1990 Normals.

If you haven't already, please take our survey and provide feedback about our website: https://eccc.sondage-survey.ca/f/LanguageSelection.aspx?s=442ca660-fcf1-47c0-95a9-59707d6fd709

Hourly Data Report for December 31, 2018

CARBERRY CS
MANITOBA
Current Station Operator: ECCC - MSC

49°54'20.900" N
99°21'26.800" W
383.50 m
5010547
71170
WZE

Download Data

Hourly Data (December 2018)
Hourly Data Report for December 31, 2018
TIME
LST
Temp Definition
°C
Dew Point Definition
°C
Rel Hum Definition
%
Precip. Amount Definition
mm

Wind Dir Definition
10's deg

Wind Spd Definition
km/h
Visibility Definition
km
Stn Press Definition
kPa
Hmdx Definition


Wind Chill Definition


Weather Definition


00:00 -24.5 -27.7 75 0.0 2 18   97.78   -36 LegendNANA
01:00 -25.6 -28.9 74 0.0 36 19   97.89   -37 LegendNANA
02:00 -26.5 -29.8 74 0.0 1 11   98.02   -35 LegendNANA
03:00 -27.0 -30.2 74 0.0 36 15   98.09   -38 LegendNANA
04:00 -27.0 -30.2 74 0.0 36 12   98.19   -37 LegendNANA
05:00 -27.8 -30.9 75 0.0 35 9   98.23   -36 LegendNANA
06:00 -26.8 -30.0 75 0.0 34 13   98.30   -37 LegendNANA
07:00 -28.1 -31.0 76 0.0 32 12   98.34   -38 LegendNANA
08:00 -28.2 -31.1 76 0.0 32 11   98.43   -38 LegendNANA
09:00 -28.4 -31.5 74 0.0 29 9   98.52   -37 LegendNANA
10:00 -29.2 -32.7 71 0.0 29 10   98.53   -38 LegendNANA
11:00 -26.8 -31.3 66 0.0 26 7   98.57   -34 LegendNANA
12:00 -24.0 -28.8 65 0.0 30 10   98.56   -32 LegendNANA
13:00 -21.8 -27.8 58 0.0 27 8   98.54   -28 LegendNANA
14:00 -20.7 -26.6 59 0.0 28 12   98.56   -29 LegendNANA
15:00 -20.8 -27.1 57 0.0 26 15   98.61   -30 LegendNANA
16:00 -21.8 -27.3 61 0.0 26 15   98.63   -31 LegendNANA
17:00 -23.6 -28.3 66 0.0 26 15   98.62   -34 LegendNANA
18:00 -25.3 -29.5 68 0.0 27 17   98.58   -36 LegendNANA
19:00 -25.6 -29.7 68 0.0 25 12   98.57   -35 LegendNANA
20:00 -26.4 -30.5 69 0.0 25 14   98.57   -37 LegendNANA
21:00 -27.3 -31.4 68 0.0 26 15   98.56   -38 LegendNANA
22:00 -27.9 -31.8 69 0.0 25 12   98.56   -38 LegendNANA
23:00 -27.8 -31.6 70 0.0 25 12   98.54   -37 LegendNANA

Notes on Data Quality.

Legend

  • E = Estimated
  • M = Missing
  • NA = Not Available*
  • [empty] = Indicates an unobserved value
Date modified: